User: anonymous   Login
Location: Ciserano
(45.5833°N, 9.6000°E)
Time: 06:04:09
(UTC+00:00)
Language:

Meteor 1-4 Rocket - Orbit

View from above orbital plane
View from above orbital plane
View from above satellite
View from above satellite

Ground track
Ground track

The orbit data is extracted from the following two-line orbital elements,

1 04394U 70037B   21055.91857877  .00001945  00000-0  63543-4 0  9996
2 04394  81.2401 228.2558 0038018 188.7243 171.3338 15.30492342771377
Epoch (UTC): 24 February 2021 22:02:45
Eccentricity: 0.0038018
inclination: 81.2401°
perigee height: 448 km
apogee height: 500 km
right ascension of ascending node: 228.2558°
argument of perigee: 188.7243°
revolutions per day: 15.30492342
mean anomaly at epoch: 171.3338°
orbit number at epoch: 77137

The dashed part of the orbit path shows where the satellite is in the earth's shadow,  

DLR